Location: Capelle
(50.3413°N, 1.9974°E)
Time: 23:40:10
(UTC+00:00)

NOSS 3-1 (C) - Pass Details

Date: 12 January 2026
Orbit: 618 x 1583 km, 63.4° (Epoch: 10 January)

Event Time Altitude Azimuth Distance (km) Brightness Sun altitude
Rises 18:04:54 0° 309° (NW) 3,451 6.9 -17.1°
Reaches altitude 10° 18:07:26 10° 319° (NW) 2,644 6.1 -17.5°
Maximum altitude 18:13:07 34° 24° (NNE) 1,716 4.5 -18.4°
Enters shadow 18:15:43 27° 60° (ENE) 2,070 4.6 -18.8°
